FW6859 Weather Reports


time (UTC)temp
F
wind
direction
speed
knots
gust
knots
rain 1hr
in
rain 24hr
in
rain mn
in
humidity
%
barometer
mb
20260506135504 57 117 0.9 1.7 0.00 0.00 0.00 87 1020.0
20260506135004 57 178 0.9 2.6 0.00 0.00 0.00 87 1019.9
20260506134505 57 117 0.9 1.7 0.00 0.00 0.00 87 1019.9
20260506133004 57 186 0.9 1.7 0.00 0.00 0.00 87 1019.8
20260506132505 57 189 1.7 2.6 0.00 0.00 0.00 87 1019.7
20260506131504 57 150 1.7 2.6 0.00 0.00 0.00 87 1019.6
20260506130005 57 178 1.7 2.6 0.00 0.00 0.00 87 1019.6
20260506125505 57 156 1.7 2.6 0.00 0.00 0.00 87 1019.5
20260506125005 57 148 1.7 2.6 0.00 0.00 0.00 87 1019.5
20260506124005 57 142 1.7 2.6 0.00 0.00 0.00 87 1019.5
20260506123505 57 148 1.7 2.6 0.00 0.00 0.00 87 1019.5
20260506123004 57 147 1.7 2.6 0.00 0.00 0.00 87 1019.4
20260506122504 57 158 1.7 2.6 0.00 0.00 0.00 87 1019.4
20260506122004 57 136 1.7 2.6 0.00 0.00 0.00 87 1019.4
20260506121505 57 143 1.7 2.6 0.00 0.00 0.00 87 1019.3
20260506120504 58 158 0.9 2.6 0.00 0.00 0.00 86 1019.2
20260506120004 58 141 1.7 2.6 0.00 0.00 0.00 86 1019.2
20260506115504 58 152 1.7 2.6 0.00 0.00 0.00 86 1019.2
20260506115005 58 133 0.9 2.6 0.00 0.00 0.00 87 1019.1
20260506114504 58 139 1.7 4.3 0.00 0.00 0.00 87 1019.1
20260506114005 58 147 0.9 4.3 0.00 0.00 0.00 87 1019.2
20260506113504 58 136 2.6 4.3 0.00 0.00 0.00 87 1019.2
20260506113004 58 143 1.7 2.6 0.00 0.00 0.00 87 1019.1
20260506112505 58 143 1.7 4.3 0.00 0.00 0.00 87 1019.1
20260506112004 58 107 1.7 2.6 0.00 0.00 0.00 87 1019.0
20260506111504 58 84 1.7 2.6 0.00 0.00 0.00 86 1019.0
20260506111005 59 103 0.9 2.6 0.00 0.00 0.00 86 1018.8
20260506110504 59 102 0.9 4.3 0.00 0.00 0.00 84 1018.7
20260506110004 59 119 0.9 1.7 0.00 0.00 0.00 84 1018.5
20260506105004 59 304 0.0 0.9 0.00 0.00 0.00 83 1018.5
20260506104504 59 344 0.0 0.9 0.00 0.00 0.00 84 1018.4
20260506104004 59 202 0.0 0.9 0.00 0.00 0.00 83 1018.4
20260506103505 59 177 0.0 1.7 0.00 0.00 0.00 83 1018.4
20260506103005 59 244 0.9 1.7 0.00 0.00 0.00 83 1018.4
20260506102005 59 245 0.0 1.7 0.00 0.00 0.00 83 1018.2
20260506101004 59 160 0.9 1.7 0.00 0.00 0.00 83 1018.1
20260506100504 59 179 1.7 2.6 0.00 0.00 0.00 83 1018.1
20260506100004 59 171 1.7 2.6 0.00 0.00 0.00 83 1018.1
20260506095504 59 170 0.9 2.6 0.00 0.00 0.00 83 1018.1
20260506094504 59 164 0.9 2.6 0.00 0.00 0.00 83 1018.1
20260506094005 59 197 1.7 2.6 0.00 0.00 0.00 84 1018.1
20260506093504 59 162 0.9 2.6 0.00 0.00 0.00 84 1018.2
20260506093005 59 177 0.9 2.6 0.00 0.00 0.00 84 1018.2
20260506092505 59 181 0.9 2.6 0.00 0.00 0.00 84 1018.2
20260506092005 59 201 1.7 4.3 0.00 0.00 0.00 83 1018.2
20260506091504 59 206 1.7 2.6 0.00 0.00 0.00 83 1018.2
20260506091004 59 190 1.7 2.6 0.00 0.00 0.00 83 1018.2
20260506090505 59 199 1.7 2.6 0.00 0.00 0.00 83 1018.2
20260506090005 59 180 1.7 2.6 0.00 0.00 0.00 83 1018.2
20260506085505 59 167 1.7 2.6 0.00 0.00 0.00 83 1018.2
20260506085004 59 195 0.9 2.6 0.00 0.00 0.00 83 1018.2
20260506084504 60 182 1.7 4.3 0.00 0.00 0.00 82 1018.1
20260506083505 60 158 1.7 4.3 0.00 0.00 0.00 82 1018.1
20260506083005 60 116 1.7 2.6 0.00 0.00 0.00 82 1018.1
20260506082505 60 167 1.7 2.6 0.00 0.00 0.00 82 1018.1
20260506082004 60 199 1.7 2.6 0.00 0.00 0.00 82 1018.1
20260506081504 60 194 1.7 2.6 0.00 0.00 0.00 82 1018.0
20260506081005 60 171 0.9 2.6 0.00 0.00 0.00 82 1018.0
20260506080504 60 198 1.7 2.6 0.00 0.00 0.00 81 1018.0
20260506073505 60 158 0.9 1.7 0.00 0.00 0.00 81 1017.8
20260506073004 60 162 1.7 2.6 0.00 0.00 0.00 81 1017.8
20260506072504 60 178 0.9 1.7 0.00 0.00 0.00 81 1017.7
20260506072005 60 214 0.9 1.7 0.00 0.00 0.00 81 1017.6
20260506071505 60 199 1.7 1.7 0.00 0.00 0.00 80 1017.6
20260506071005 60 156 0.9 1.7 0.00 0.00 0.00 81 1017.6
20260506062504 60 203 0.9 2.6 0.00 0.00 0.00 81 1017.2
20260506062005 60 218 1.7 4.3 0.00 0.00 0.00 81 1017.2
20260506061005 60 194 1.7 5.2 0.00 0.00 0.00 81 1017.0
20260506060505 61 210 1.7 4.3 0.00 0.00 0.00 81 1017.1
20260506051005 61 261 2.6 4.3 0.00 0.00 0.00 79 1016.7
20260506050505 61 263 1.7 5.2 0.00 0.00 0.00 79 1016.6
20260506045004 62 192 2.6 7.0 0.00 0.00 0.00 79 1016.3
20260506044004 62 198 2.6 5.2 0.00 0.00 0.00 79 1016.2
20260506043505 62 206 2.6 6.1 0.00 0.00 0.00 79 1016.2
20260506043004 62 199 1.7 5.2 0.00 0.00 0.00 78 1016.0
20260506042505 62 206 2.6 6.1 0.00 0.00 0.00 78 1016.0
20260506042005 62 266 0.9 5.2 0.00 0.00 0.00 79 1015.9
20260506041504 62 237 2.6 6.1 0.00 0.00 0.00 78 1015.7
20260506041004 62 210 4.3 7.0 0.00 0.00 0.00 78 1015.7
20260506040004 62 208 4.3 7.0 0.00 0.00 0.00 78 1015.7
20260506035505 62 201 2.6 5.2 0.00 0.00 0.00 78 1015.8
20260506035005 62 215 2.6 6.1 0.00 0.00 0.00 78 1015.8
20260506034504 62 191 2.6 7.8 0.00 0.00 0.00 78 1015.8
20260506034004 62 216 2.6 5.2 0.00 0.00 0.00 78 1015.7
20260506033504 63 208 4.3 7.0 0.00 0.00 0.00 78 1015.6
20260506033005 63 201 3.5 6.1 0.00 0.00 0.00 77 1015.5
20260506032505 63 242 2.6 5.2 0.00 0.00 0.00 77 1015.4
20260506032005 63 240 1.7 6.1 0.00 0.00 0.00 76 1015.3
20260506031505 63 247 2.6 6.1 0.00 0.00 0.00 76 1015.2
20260506024005 64 221 4.3 7.8 0.00 0.00 0.00 75 1014.7
20260506023505 64 221 6.1 8.7 0.00 0.00 0.00 74 1014.6
20260506023005 65 212 4.3 7.8 0.00 0.00 0.00 75 1014.6
20260506022005 65 220 3.5 7.8 0.00 0.00 0.00 74 1014.5
20260506021505 65 179 5.2 7.8 0.00 0.00 0.00 74 1014.4
20260506021005 65 206 4.3 7.8 0.00 0.00 0.00 73 1014.3
20260506020504 65 211 4.3 7.8 0.00 0.00 0.00 73 1014.3
20260506015004 65 232 5.2 7.0 0.00 0.00 0.00 72 1014.3
20260506014504 65 215 5.2 8.7 0.00 0.00 0.00 72 1014.2
20260506014004 65 202 5.2 8.7 0.00 0.00 0.00 72 1014.2
20260506013505 65 201 2.6 7.0 0.00 0.00 0.00 72 1014.3
20260506013005 65 207 3.5 7.8 0.00 0.00 0.00 72 1014.3
20260506012505 65 231 5.2 7.8 0.00 0.00 0.00 72 1014.3
20260506012004 65 235 4.3 7.0 0.00 0.00 0.00 72 1014.3
20260506011505 65 184 2.6 7.0 0.00 0.00 0.00 73 1014.3
20260506011005 66 240 3.5 7.0 0.00 0.00 0.00 73 1014.3
20260506010504 66 218 4.3 10.4 0.00 0.00 0.00 73 1014.2
20260506010004 66 217 2.6 10.4 0.00 0.00 0.00 70 1014.1
20260506005504 66 227 2.6 7.8 0.00 0.00 0.00 68 1013.9
20260506004505 67 166 4.3 8.7 0.00 0.00 0.00 67 1013.9
20260506004004 67 179 2.6 7.0 0.00 0.00 0.00 66 1013.8
20260506003504 67 170 2.6 8.7 0.00 0.00 0.00 67 1013.8
20260506003004 67 179 1.7 6.1 0.00 0.00 0.00 64 1013.7
20260506002505 67 250 2.6 5.2 0.00 0.00 0.00 64 1013.7
20260506002005 67 172 3.5 7.8 0.00 0.00 0.00 65 1013.7
20260506000504 67 163 1.7 6.1 0.00 0.00 0.00 64 1013.7
20260505235505 67 161 3.5 6.1 0.00 0.00 0.00 64 1013.6
20260505235005 68 189 4.3 6.1 0.00 0.00 0.00 64 1013.6
20260505234005 68 152 2.6 6.1 0.00 0.00 0.00 63 1013.6
20260505233504 69 127 2.6 7.0 0.00 0.00 0.00 63 1013.5
20260505233004 69 105 2.6 6.1 0.00 0.00 0.00 61 1013.4
20260505232505 70 84 1.7 6.1 0.00 0.00 0.00 60 1013.5
20260505232005 70 16 2.6 5.2 0.00 0.00 0.00 61 1013.6
20260505231004 70 105 2.6 7.0 0.00 0.00 0.00 61 1013.6
20260505230505 70 34 1.7 4.3 0.00 0.00 0.00 61 1013.7
20260505230004 70 256 1.7 4.3 0.00 0.00 0.00 59 1013.7
20260505225504 69 37 1.7 2.6 0.00 0.00 0.00 60 1013.6
20260505224504 68 264 2.6 6.1 0.00 0.00 0.00 62 1013.8
20260505224005 68 238 2.6 6.1 0.00 0.00 0.00 62 1013.8
20260505223504 68 357 2.6 4.3 0.00 0.00 0.00 64 1014.0
20260505223005 67 289 1.7 2.6 0.00 0.00 0.00 65 1014.0
20260505222005 66 304 2.6 4.3 0.00 0.00 0.00 66 1014.2
20260505221504 65 299 1.7 2.6 0.00 0.00 0.00 66 1014.3
20260505221005 65 199 1.7 4.3 0.00 0.00 0.00 69 1014.4
20260505220504 65 172 2.6 5.2 0.00 0.00 0.00 70 1014.5
20260505220005 65 178 4.3 6.1 0.00 0.00 0.00 70 1014.4
20260505213505 65 282 2.6 7.0 0.00 0.00 0.00 69 1014.5
20260505212504 63 9 2.6 5.2 0.00 0.00 0.00 72 1014.7
20260505212004 63 18 3.5 6.1 0.00 0.00 0.00 73 1014.8
20260505210504 63 237 1.7 5.2 0.00 0.00 0.00 73 1014.8
20260505210005 63 348 1.7 4.3 0.00 0.00 0.00 73 1014.8
20260505205005 62 16 1.7 6.1 0.00 0.00 0.00 75 1014.9
20260505204504 62 22 1.7 4.3 0.00 0.00 0.00 76 1015.0
20260505204005 62 55 2.6 5.2 0.00 0.00 0.00 75 1014.9
20260505203505 62 61 1.7 4.3 0.00 0.00 0.00 76 1015.0
20260505203005 61 63 2.6 4.3 0.00 0.00 0.00 77 1015.1
20260505202504 61 341 2.6 5.2 0.00 0.00 0.00 77 1015.1
20260505202005 60 337 2.6 7.0 0.00 0.00 0.00 78 1015.1
20260505201505 60 320 2.6 6.1 0.00 0.00 0.00 80 1015.3
20260505201005 60 19 2.6 6.1 0.00 0.00 0.00 79 1015.3
20260505200504 61 356 1.7 6.1 0.00 0.00 0.00 79 1015.4
20260505200005 61 41 3.5 5.2 0.00 0.00 0.00 79 1015.3
20260505195505 61 334 2.6 2.6 0.00 0.00 0.00 78 1015.3
20260505195005 60 307 0.9 2.6 0.00 0.00 0.00 79 1015.4
20260505194504 60 337 2.6 4.3 0.00 0.00 0.00 80 1015.4
20260505193505 60 306 1.7 4.3 0.00 0.00 0.00 80 1015.4
20260505193004 59 357 2.6 5.2 0.00 0.00 0.00 82 1015.5
20260505192505 59 1 2.6 5.2 0.00 0.00 0.00 84 1015.7
20260505192005 59 36 1.7 4.3 0.00 0.00 0.00 83 1015.7
20260505191505 59 29 2.6 5.2 0.00 0.00 0.00 83 1015.6
20260505191004 59 328 1.7 5.2 0.00 0.00 0.00 82 1015.5
20260505190505 59 337 2.6 5.2 0.00 0.00 0.00 83 1015.6
20260505190005 58 7 1.7 2.6 0.00 0.00 0.00 84 1015.7
20260505185505 58 353 1.7 4.3 0.00 0.00 0.00 85 1015.7
20260505185005 58 328 2.6 6.1 0.00 0.00 0.00 86 1015.8
20260505184505 58 15 2.6 5.2 0.00 0.00 0.00 85 1015.7
20260505183504 58 4 1.7 5.2 0.00 0.00 0.00 86 1015.8
20260505183004 58 7 3.5 6.1 0.00 0.00 0.00 87 1015.8
20260505182505 58 2 2.6 5.2 0.00 0.00 0.00 86 1015.7
20260505182005 58 8 1.7 5.2 0.00 0.00 0.00 86 1015.7
20260505181004 58 5 0.9 5.2 0.00 0.00 0.00 86 1015.7
20260505180505 57 47 0.9 4.3 0.00 0.00 0.00 87 1015.5
20260505180004 57 3 3.5 5.2 0.00 0.00 0.00 87 1015.5
20260505174505 57 66 0.9 4.3 0.00 0.00 0.00 86 1015.5
20260505173005 57 20 1.7 5.2 0.00 0.00 0.00 88 1015.5
20260505172504 57 14 2.6 5.2 0.00 0.00 0.00 87 1015.4
20260505172004 57 17 2.6 4.3 0.00 0.00 0.00 87 1015.4
20260505171505 57 11 1.7 4.3 0.00 0.00 0.00 87 1015.4
20260505171005 57 358 2.6 4.3 0.00 0.00 0.00 87 1015.3
20260505170504 57 332 1.7 4.3 0.00 0.00 0.00 87 1015.4
20260505170004 57 353 2.6 4.3 0.00 0.00 0.00 88 1015.4
20260505165505 57 14 0.9 2.6 0.00 0.00 0.00 88 1015.5
20260505165004 56 58 1.7 2.6 0.00 0.00 0.00 88 1015.5
20260505164005 56 48 2.6 4.3 0.00 0.00 0.00 88 1015.3
20260505163504 56 2 1.7 2.6 0.00 0.00 0.00 87 1015.3
20260505163005 56 358 1.7 2.6 0.00 0.00 0.00 88 1015.3
20260505162505 56 325 1.7 2.6 0.00 0.00 0.00 88 1015.3
20260505162005 56 36 1.7 2.6 0.00 0.00 0.00 89 1015.3
20260505161505 56 352 1.7 4.3 0.00 0.00 0.00 88 1015.3
20260505161005 56 17 0.9 2.6 0.00 0.00 0.00 89 1015.3
20260505160504 56 27 0.9 2.6 0.00 0.00 0.00 89 1015.3
20260505153005 55 6 0.9 1.7 0.00 0.00 0.00 92 1015.8
20260505152504 55 327 0.9 1.7 0.00 0.00 0.00 91 1015.8
20260505152004 55 355 0.9 1.7 0.00 0.00 0.00 92 1015.8
20260505151505 55 306 0.0 0.9 0.00 0.00 0.00 92 1015.8
20260505151005 54 131 0.0 0.0 0.00 0.00 0.00 93 1015.7
20260505150504 54 131 0.0 0.9 0.00 0.00 0.00 93 1015.5
20260505140505 54 102 0.9 1.7 0.00 0.00 0.00 94 1015.0